Weather History for Williams, AZ

Change the Weather History Date:

Sunday, November 4, 2012

  Actual Average (KFLG) Record (KFLG)
Temperature  
Mean Temperature 47 °F 41 °F  
Max Temperature 66 °F 55 °F 73 °F (1975)
Min Temperature 28 °F 26 °F -1 °F (1922)
Degree Days  
Heating Degree Days 18 24  
Month to date heating degree days 95  
Since 1 July heating degree days 978  
Cooling Degree Days 0 0  
Month to date cooling degree days 0  
Year to date cooling degree days 117  
Moisture  
Dew Point 17 °F    
Average Humidity 36    
Maximum Humidity 74    
Minimum Humidity 12    
Precipitation  
Precipitation 0.00 in 0.06 in 0.65 in (2011)
Month to date precipitation 0.23  
Year to date precipitation 18.46  
Snow  
Snow 0.00 in 0.20 in 5.00 in (1925)
Month to date snowfall 0.8  
Since 1 July snowfall 2.3  
Snow Depth -    
Sea Level Pressure  
Sea Level Pressure 30.43 in    
Wind  
Wind Speed 7 mph (SE)    
Max Wind Speed 10 mph    
Max Gust Speed -    
Visibility 10 miles    
Events      
T = Trace of Precipitation, MM = Missing Value Source: NWS Daily Summary

Daily Weather History Graph

Daily Weather History Graph

Search for Another Location

Airport:

Trip Planner

Search our weather history database for the weather conditions in past years. The results will help you decide how hot, cold, wet, or windy it might be!

Date:

Astronomy

Nov. 04, 2012 Rise Set
Actual Time 6:53 AM MST 5:30 PM MST
Civil Twilight 6:27 AM MST 5:57 PM MST
Nautical Twilight 5:56 AM MST 6:27 PM MST
Astronomical Twilight 5:27 AM MST 6:56 PM MST
Moon 10:13 PM MST (11/4) 11:37 AM MST (11/4)
Length of Visible Light 11h 29m
Length of Day
10h 36m
Waning Gibbous, 71% of the Moon is Illuminated
Nov 4
Waning Gibbous
Nov 6
Last Quarter
Nov 13
New
Nov 20
First Quarter
Nov 28
Full

Hourly Weather History & Observations

Time (MST) Temp. Windchill Dew Point Humidity Pressure Visibility Wind Dir Wind Speed Gust Speed Precip Events Conditions
12:15 AM 33.8 °F 27.7 °F 19.4 °F 56% 30.40 in 10.0 mi SE 6.9 mph - N/A   Clear
12:35 AM 32.0 °F 23.6 °F 19.4 °F 60% 30.40 in 10.0 mi SSE 10.4 mph - N/A   Clear
12:55 AM 32.0 °F 24.2 °F 19.4 °F 60% 30.39 in 10.0 mi SSE 9.2 mph - N/A   Clear
1:15 AM 32.0 °F 24.2 °F 19.4 °F 60% 30.39 in 10.0 mi SSE 9.2 mph - N/A   Clear
1:35 AM 32.0 °F 23.6 °F 19.4 °F 60% 30.40 in 10.0 mi SSE 10.4 mph - N/A   Clear
1:55 AM 32.0 °F 23.6 °F 21.2 °F 64% 30.40 in 10.0 mi SSE 10.4 mph - N/A   Clear
2:15 AM 32.0 °F 24.2 °F 21.2 °F 64% 30.40 in 10.0 mi SSE 9.2 mph - N/A   Clear
2:35 AM 32.0 °F 23.6 °F 21.2 °F 64% 30.40 in 10.0 mi SSE 10.4 mph - N/A   Clear
2:55 AM 32.0 °F 23.6 °F 21.2 °F 64% 30.40 in 10.0 mi SSE 10.4 mph - N/A   Clear
3:15 AM 32.0 °F 23.6 °F 21.2 °F 64% 30.39 in 10.0 mi SSE 10.4 mph - N/A   Clear
3:35 AM 32.0 °F 24.2 °F 21.2 °F 64% 30.39 in 10.0 mi SSE 9.2 mph - N/A   Clear
3:55 AM 32.0 °F 24.8 °F 21.2 °F 64% 30.39 in 10.0 mi SSE 8.1 mph - N/A   Clear
4:15 AM 32.0 °F 25.6 °F 21.2 °F 64% 30.40 in 10.0 mi SSE 6.9 mph - N/A   Clear
4:35 AM 32.0 °F 24.8 °F 21.2 °F 64% 30.41 in 10.0 mi SSE 8.1 mph - N/A   Clear
4:55 AM 32.0 °F 24.8 °F 21.2 °F 64% 30.41 in 10.0 mi SSE 8.1 mph - N/A   Clear
5:15 AM 30.2 °F 23.4 °F 21.2 °F 69% 30.41 in 10.0 mi SSE 6.9 mph - N/A   Clear
5:35 AM 30.2 °F 24.3 °F 21.2 °F 69% 30.42 in 10.0 mi SSE 5.8 mph - N/A   Clear
5:55 AM 30.2 °F 22.6 °F 21.2 °F 69% 30.42 in 10.0 mi SSE 8.1 mph - N/A   Clear
6:15 AM 28.4 °F 19.1 °F 21.2 °F 74% 30.42 in 10.0 mi SSE 10.4 mph - N/A   Clear
6:55 AM 28.4 °F 20.4 °F 21.2 °F 74% 30.43 in 10.0 mi SSE 8.1 mph - N/A   Clear
7:15 AM 30.2 °F 22.6 °F 21.2 °F 69% 30.43 in 10.0 mi SSE 8.1 mph - N/A   Clear
7:35 AM 32.0 °F 27.5 °F 21.2 °F 64% 30.44 in 10.0 mi SSE 4.6 mph - N/A   Clear
7:55 AM 35.6 °F 30.7 °F 23.0 °F 60% 30.45 in 10.0 mi SSE 5.8 mph - N/A   Clear
8:15 AM 41.0 °F 36.4 °F 23.0 °F 49% 30.45 in 10.0 mi SSE 6.9 mph - N/A   Clear
8:35 AM 46.4 °F 44.3 °F 23.0 °F 40% 30.45 in 10.0 mi SSE 4.6 mph - N/A   Clear
8:55 AM 51.8 °F - 23.0 °F 33% 30.46 in 10.0 mi SSE 3.5 mph - N/A   Clear
9:15 AM 55.4 °F - 21.2 °F 26% 30.45 in 10.0 mi Calm Calm - N/A   Clear
9:35 AM 59.0 °F - 17.6 °F 20% 30.45 in 10.0 mi Calm Calm - N/A   Clear
9:55 AM 59.0 °F - 15.8 °F 19% 30.46 in 10.0 mi NE 4.6 mph - N/A   Clear
10:15 AM 60.8 °F - 14.0 °F 16% 30.46 in 10.0 mi NNE 6.9 mph - N/A   Clear
10:35 AM 62.6 °F - 14.0 °F 15% 30.46 in 10.0 mi NNE 4.6 mph - N/A   Clear
10:55 AM 62.6 °F - 14.0 °F 15% 30.46 in 10.0 mi North 4.6 mph - N/A   Clear
11:15 AM 62.6 °F - 12.2 °F 14% 30.46 in 10.0 mi Calm Calm - N/A   Clear
11:35 AM 64.4 °F - 14.0 °F 14% 30.44 in 10.0 mi NNE 9.2 mph - N/A   Clear
11:55 AM 64.4 °F - 14.0 °F 14% 30.44 in 10.0 mi Calm Calm - N/A   Clear
12:15 PM 64.4 °F - 14.0 °F 14% 30.43 in 10.0 mi NNW 8.1 mph - N/A   Clear
12:35 PM 64.4 °F - 14.0 °F 14% 30.42 in 10.0 mi NNW 4.6 mph - N/A   Clear
12:55 PM 64.4 °F - 14.0 °F 14% 30.41 in 10.0 mi South 3.5 mph - N/A   Clear
1:15 PM 66.2 °F - 14.0 °F 13% 30.41 in 10.0 mi NW 4.6 mph - N/A   Clear
1:35 PM 66.2 °F - 14.0 °F 13% 30.41 in 10.0 mi WNW 4.6 mph - N/A   Clear
1:55 PM 66.2 °F - 14.0 °F 13% 30.40 in 10.0 mi NNE 6.9 mph - N/A   Clear
2:15 PM 66.2 °F - 14.0 °F 13% 30.40 in 10.0 mi NNE 3.5 mph - N/A   Clear
2:35 PM 66.2 °F - 14.0 °F 13% 30.40 in 10.0 mi NNW 6.9 mph - N/A   Clear
2:55 PM 66.2 °F - 14.0 °F 13% 30.40 in 10.0 mi NW 9.2 mph - N/A   Clear
3:15 PM 66.2 °F - 14.0 °F 13% 30.40 in 10.0 mi North 9.2 mph - N/A   Clear
3:35 PM 66.2 °F - 14.0 °F 13% 30.40 in 10.0 mi North 9.2 mph - N/A   Clear
3:55 PM 66.2 °F - 12.2 °F 12% 30.40 in 10.0 mi North 8.1 mph - N/A   Clear
4:15 PM 64.4 °F - 10.4 °F 12% 30.41 in 10.0 mi North 9.2 mph - N/A   Clear
4:35 PM 64.4 °F - 10.4 °F 12% 30.41 in 10.0 mi North 9.2 mph - N/A   Clear
4:55 PM 62.6 °F - 10.4 °F 13% 30.41 in 10.0 mi NNE 8.1 mph - N/A   Clear
5:15 PM 59.0 °F - 12.2 °F 16% 30.42 in 10.0 mi NE 9.2 mph - N/A   Clear
5:35 PM 57.2 °F - 14.0 °F 18% 30.42 in 10.0 mi NE 6.9 mph - N/A   Clear
5:55 PM 55.4 °F - 14.0 °F 20% 30.43 in 10.0 mi East 3.5 mph - N/A   Clear
6:15 PM 55.4 °F - 14.0 °F 20% 30.43 in 10.0 mi ENE 4.6 mph - N/A   Clear
6:35 PM 53.6 °F - 15.8 °F 22% 30.44 in 10.0 mi Calm Calm - N/A   Clear
6:55 PM 53.6 °F - 14.0 °F 21% 30.44 in 10.0 mi Calm Calm - N/A   Clear
7:15 PM 48.2 °F - 14.0 °F 25% 30.45 in 10.0 mi ESE 3.5 mph - N/A   Clear
7:35 PM 48.2 °F - 14.0 °F 25% 30.46 in 10.0 mi Calm Calm - N/A   Clear
7:55 PM 48.2 °F - 14.0 °F 25% 30.45 in 9.0 mi SSE 3.5 mph - N/A   Clear
8:15 PM 48.2 °F - 14.0 °F 25% 30.45 in 10.0 mi South 4.6 mph - N/A   Clear
8:35 PM 44.6 °F 41.4 °F 14.0 °F 29% 30.46 in 9.0 mi South 5.8 mph - N/A   Clear
8:55 PM 41.0 °F 37.1 °F 14.0 °F 33% 30.46 in 10.0 mi SSE 5.8 mph - N/A   Clear
9:15 PM 39.2 °F 33.0 °F 14.0 °F 36% 30.46 in 10.0 mi SSE 9.2 mph - N/A   Clear
9:55 PM 37.4 °F 30.8 °F 14.0 °F 38% 30.47 in 10.0 mi SSE 9.2 mph - N/A   Clear
10:15 PM 37.4 °F 31.4 °F 14.0 °F 38% 30.47 in 10.0 mi SSE 8.1 mph - N/A   Clear
10:35 PM 37.4 °F 30.8 °F 14.0 °F 38% 30.46 in 10.0 mi SSE 9.2 mph - N/A   Clear
10:55 PM 37.4 °F 32.8 °F 14.0 °F 38% 30.47 in 10.0 mi SE 5.8 mph - N/A   Clear
11:15 PM 35.6 °F 29.9 °F 15.8 °F 44% 30.47 in 10.0 mi SSE 6.9 mph - N/A   Clear
11:35 PM 35.6 °F 29.2 °F 15.8 °F 44% 30.47 in 10.0 mi SSE 8.1 mph - N/A   Clear
11:55 PM 35.6 °F 29.9 °F 15.8 °F 44% 30.47 in 10.0 mi SSE 6.9 mph - N/A   Clear